Date String (YYYY-MM-DD hh:mm:ss) UTC,Instrument flags,absolute air pressure of the measurement (hPa),sample flow rate (lpm),inlet stack bypass flow (lpm),air temperature of the measurement (°C),ambient temperature measured by the external sensor (°C),aerosol sample conditioner tube jacket temperature (°C),OPC LED temperature (°C),internal box temperature (°C),relative humidity of the measurement (%),span deviation,mass concentration of particles derived from Lorenz-Mie calculation of OPC scattering (μg/m³),mass concentration of particles derived from Lorenz-Mie calculation of OPC scattering (μg/m³),mass concentration of particles derived from Lorenz-Mie calculation of OPC scattering (μg/m³)
DateTimeUTC,F1_M11,P_M11,Q1_M11,Q2_M11,T1_M11,T2_M11,T3_M11,T4_M11,T5_M11,U1_M11,ZSPAN_M11,X0_M11,X2_M11,X1_M11
2023-07-14 11:00:00,SystemResetWarning,0829.9,5.01,000.00,029.3,026.7,000.0,037.9,030.8,19.5,0000.0,0007.75,0003.57,0003.15
2023-07-14 11:01:00,SystemResetWarning,0829.9,4.99,000.00,029.3,027.0,000.0,037.9,030.8,19.4,0000.0,0007.86,0003.61,0003.16
2023-07-14 11:02:00,SystemResetWarning,0830.0,5.00,000.00,029.3,027.3,000.0,037.9,030.9,19.2,0000.0,0008.00,0003.63,0003.15
2023-07-14 11:03:00,SystemResetWarning,0829.9,5.00,000.00,029.4,027.5,000.0,037.9,030.9,19.0,0000.0,0008.18,0003.61,0003.15
2023-07-14 11:04:00,SystemResetWarning,0829.9,5.00,000.00,029.4,027.7,000.0,037.9,030.9,18.9,0000.0,0008.25,0003.63,0003.15
2023-07-14 11:05:00,SystemResetWarning,0829.9,5.00,000.00,029.4,027.8,000.0,037.9,031.0,19.2,0000.0,0008.02,0003.62,0003.14
2023-07-14 11:06:00,SystemResetWarning,0829.9,5.00,000.00,029.4,027.9,000.0,037.9,031.0,19.4,0000.0,0007.09,0003.61,0003.14
2023-07-14 11:07:00,SystemResetWarning,0830.0,4.99,000.00,029.5,028.0,000.0,037.9,031.1,19.2,0000.0,0007.10,0003.61,0003.14
2023-07-14 11:08:00,SystemResetWarning,0830.0,4.99,000.00,029.5,028.1,000.0,037.9,031.1,18.8,0000.0,0007.12,0003.61,0003.14
2023-07-14 11:09:00,SystemResetWarning,0830.0,5.02,000.00,029.5,028.2,000.0,038.0,031.1,19.0,0000.0,0007.04,0003.61,0003.15
2023-07-14 11:10:00,SystemResetWarning,0830.0,5.01,000.00,029.5,028.3,000.0,038.0,031.2,19.0,0000.0,0007.09,0003.61,0003.15
2023-07-14 11:11:00,SystemResetWarning,0830.0,4.98,000.00,029.6,028.3,000.0,038.0,031.2,19.1,0000.0,0007.33,0003.60,0003.13
2023-07-14 11:12:00,SystemResetWarning,0830.0,5.00,000.00,029.6,028.4,000.0,038.0,031.2,19.2,0000.0,0007.19,0003.56,0003.12
2023-07-14 11:13:00,SystemResetWarning,0830.0,5.01,000.00,029.6,028.5,000.0,038.1,031.3,18.8,0000.0,0006.84,0003.51,0003.11
2023-07-14 11:14:00,SystemResetWarning,0830.0,5.01,000.00,029.6,028.5,000.0,038.1,031.3,18.6,0000.0,0006.52,0003.51,0003.11
2023-07-14 11:15:00,SystemResetWarning,0830.0,4.98,000.00,029.7,028.5,000.0,038.1,031.3,18.9,0000.0,0006.62,0003.53,0003.12
2023-07-14 11:16:00,SystemResetWarning,0830.0,4.99,000.00,029.7,028.6,000.0,038.1,031.3,18.8,0000.0,0006.76,0003.55,0003.14
2023-07-14 11:17:00,SystemResetWarning,0830.0,5.00,000.00,029.7,028.3,000.0,038.1,031.3,18.7,0000.0,0006.76,0003.54,0003.14
2023-07-14 11:18:00,SystemResetWarning,0829.9,5.00,000.00,029.7,026.3,000.0,038.0,031.1,18.9,0000.0,0007.39,0003.56,0003.15
2023-07-14 11:19:00,SystemResetWarning,0830.0,5.01,000.00,029.6,025.3,000.0,037.9,030.9,18.8,0000.0,0007.24,0003.58,0003.15
2023-07-14 11:20:00,SystemResetWarning,0830.1,5.01,000.00,029.5,025.4,000.0,037.9,030.6,18.9,0000.0,0007.24,0003.58,0003.15
2023-07-14 11:21:00,SystemResetWarning,0830.0,4.99,000.00,029.4,025.7,000.0,037.9,030.6,18.9,0000.0,0007.31,0003.57,0003.14
2023-07-14 11:22:00,SystemResetWarning,0830.0,5.00,000.00,029.4,026.1,000.0,037.9,030.7,18.9,0000.0,0007.00,0003.56,0003.14
2023-07-14 11:23:00,SystemResetWarning,0830.0,5.01,000.00,029.3,026.5,000.0,037.9,030.8,18.8,0000.0,0007.03,0003.54,0003.13
2023-07-14 11:24:00,SystemResetWarning,0830.0,4.99,000.00,029.3,026.9,000.0,037.9,030.8,18.8,0000.0,0007.06,0003.55,0003.15
2023-07-14 11:25:00,SystemResetWarning,0830.1,5.00,000.00,029.3,027.2,000.0,037.9,030.9,18.8,0000.0,0007.37,0003.59,0003.17
2023-07-14 11:26:00,SystemResetWarning,0830.0,5.00,000.00,029.4,027.4,000.0,037.9,030.9,19.0,0000.0,0007.59,0003.64,0003.17
2023-07-14 11:27:00,SystemResetWarning,0830.0,5.00,000.00,029.4,027.6,000.0,037.9,030.9,19.0,0000.0,0007.53,0003.62,0003.17
2023-07-14 11:28:00,SystemResetWarning,0830.0,5.00,000.00,029.4,027.7,000.0,037.9,031.0,19.1,0000.0,0007.58,0003.67,0003.17
2023-07-14 11:29:00,SystemResetWarning,0830.0,5.00,000.00,029.4,027.9,000.0,037.9,031.0,19.2,0000.0,0007.12,0003.65,0003.16
2023-07-14 11:30:00,SystemResetWarning,0830.0,5.00,000.00,029.5,028.0,000.0,037.9,031.1,19.3,0000.0,0007.04,0003.62,0003.16
2023-07-14 11:31:00,SystemResetWarning,0830.0,4.99,000.00,029.5,028.1,000.0,038.0,031.1,18.5,0000.0,0007.18,0003.61,0003.15
2023-07-14 11:32:00,SystemResetWarning,0830.0,5.00,000.00,029.5,028.2,000.0,038.0,031.1,18.6,0000.0,0007.69,0003.61,0003.15
2023-07-14 11:33:00,SystemResetWarning,0830.0,5.00,000.00,029.5,028.3,000.0,038.0,031.2,19.2,0000.0,0007.55,0003.61,0003.15
2023-07-14 11:34:00,SystemResetWarning,0830.0,5.01,000.00,029.6,028.4,000.0,038.0,031.2,19.2,0000.0,0007.74,0003.63,0003.15
2023-07-14 11:35:00,SystemResetWarning,0830.0,5.01,000.00,029.6,028.4,000.0,038.0,031.3,19.3,0000.0,0007.91,0003.67,0003.16
2023-07-14 11:36:00,SystemResetWarning,0830.0,5.01,000.00,029.6,028.5,000.0,038.1,031.3,19.1,0000.0,0007.84,0003.65,0003.14
2023-07-14 11:37:00,SystemResetWarning,0830.0,4.99,000.00,029.7,028.5,000.0,038.1,031.3,18.7,0000.0,0008.38,0003.64,0003.15
2023-07-14 11:38:00,SystemResetWarning,0830.0,4.99,000.00,029.7,028.6,000.0,038.1,031.3,18.2,0000.0,0008.40,0003.66,0003.15
2023-07-14 11:39:00,SystemResetWarning,0830.0,5.00,000.00,029.7,028.6,000.0,038.1,031.4,17.7,0000.0,0008.29,0003.64,0003.17
2023-07-14 11:40:00,SystemResetWarning,0830.0,5.00,000.00,029.7,027.1,000.0,038.0,031.3,17.0,0000.0,0008.33,0003.67,0003.18
2023-07-14 11:41:00,SystemResetWarning,0830.0,5.00,000.00,029.6,025.6,000.0,037.9,031.0,16.7,0000.0,0008.71,0003.70,0003.19
2023-07-14 11:42:00,SystemResetWarning,0830.0,5.01,000.00,029.6,025.5,000.0,037.9,030.8,16.8,0000.0,0009.17,0003.72,0003.21
2023-07-14 11:43:00,SystemResetWarning,0830.0,5.01,000.00,029.5,025.8,000.0,037.9,030.7,16.7,0000.0,0009.23,0003.76,0003.23
2023-07-14 11:44:00,SystemResetWarning,0830.0,5.00,000.00,029.4,026.1,000.0,037.9,030.7,17.0,0000.0,0009.42,0003.82,0003.25
2023-07-14 11:45:00,SystemResetWarning,0830.0,5.01,000.00,029.4,026.5,000.0,037.9,030.8,18.1,0000.0,0009.28,0003.87,0003.28
2023-07-14 11:46:00,SystemResetWarning,0830.1,4.99,000.00,029.4,026.8,000.0,037.9,030.8,18.5,0000.0,0009.16,0003.87,0003.29
2023-07-14 11:47:00,SystemResetWarning,0830.0,5.00,000.00,029.4,027.1,000.0,038.0,030.9,18.3,0000.0,0009.18,0003.86,0003.29
2023-07-14 11:48:00,SystemResetWarning,0830.1,4.99,000.00,029.4,027.4,000.0,038.0,030.9,18.8,0000.0,0008.54,0003.87,0003.28
2023-07-14 11:49:00,SystemResetWarning,0830.1,5.00,000.00,029.4,027.6,000.0,038.0,031.0,19.1,0000.0,0008.47,0003.85,0003.26
2023-07-14 11:50:00,SystemResetWarning,0830.1,4.99,000.00,029.4,027.7,000.0,038.0,031.0,19.0,0000.0,0008.59,0003.83,0003.24
2023-07-14 11:51:00,SystemResetWarning,0830.2,5.00,000.00,029.4,027.9,000.0,038.0,031.1,18.6,0000.0,0009.20,0003.78,0003.22
2023-07-14 11:52:00,SystemResetWarning,0830.3,4.99,000.00,029.5,028.0,000.0,038.0,031.1,18.2,0000.0,0008.88,0003.73,0003.19
2023-07-14 11:53:00,SystemResetWarning,0830.3,5.00,000.00,029.5,028.1,000.0,038.0,031.1,18.1,0000.0,0008.17,0003.70,0003.16
2023-07-14 11:54:00,SystemResetWarning,0830.3,5.00,000.00,029.5,028.2,000.0,038.0,031.1,18.0,0000.0,0007.80,0003.65,0003.15
2023-07-14 11:55:00,SystemResetWarning,0830.2,5.01,000.00,029.6,028.3,000.0,038.0,031.2,17.7,0000.0,0008.24,0003.61,0003.13
2023-07-14 11:56:00,SystemResetWarning,0830.3,5.01,000.00,029.6,028.4,000.0,038.0,031.2,17.3,0000.0,0008.21,0003.55,0003.11
2023-07-14 11:57:00,SystemResetWarning,0830.2,5.00,000.00,029.6,028.4,000.0,038.1,031.2,17.2,0000.0,0008.28,0003.53,0003.09
2023-07-14 11:58:00,SystemResetWarning,0830.2,4.98,000.00,029.6,028.5,000.0,038.1,031.3,16.7,0000.0,0008.21,0003.51,0003.08
2023-07-14 11:59:00,SystemResetWarning,0830.2,5.01,000.00,029.7,028.5,000.0,038.1,031.3,16.6,0000.0,0008.08,0003.47,0003.09
